TimeEDT,TemperatureF,Dew PointF,Humidity,Sea Level PressureIn,VisibilityMPH,Wind Direction,Wind SpeedMPH,Gust SpeedMPH,PrecipitationIn,Events,Conditions,WindDirDegrees,DateUTC
12:15 AM,53.6,39.2,58,30.13,10.0,NNE,9.2,-,N/A,,Overcast,20,2012-10-24 04:15:00
12:35 AM,53.6,37.4,54,30.13,10.0,NNE,6.9,-,N/A,,Overcast,20,2012-10-24 04:35:00
12:55 AM,51.8,35.6,54,30.14,10.0,NNE,5.8,-,N/A,,Overcast,30,2012-10-24 04:55:00
1:15 AM,51.8,35.6,54,30.14,10.0,ENE,3.5,-,N/A,,Overcast,60,2012-10-24 05:15:00
2:15 AM,48.2,37.4,66,30.14,10.0,North,8.1,-,N/A,,Overcast,10,2012-10-24 06:15:00
2:35 AM,48.2,35.6,62,30.13,10.0,North,4.6,-,N/A,,Mostly Cloudy,350,2012-10-24 06:35:00
2:55 AM,46.4,35.6,66,30.13,10.0,Calm,Calm,-,N/A,,Partly Cloudy,0,2012-10-24 06:55:00
3:15 AM,48.2,33.8,58,30.15,10.0,NNW,3.5,-,N/A,,Scattered Clouds,340,2012-10-24 07:15:00
3:35 AM,46.4,33.8,62,30.15,10.0,Calm,Calm,-,N/A,,Overcast,0,2012-10-24 07:35:00
3:55 AM,46.4,33.8,62,30.15,10.0,ENE,3.5,-,N/A,,Overcast,60,2012-10-24 07:55:00
4:35 AM,46.4,33.8,62,30.15,10.0,NNE,4.6,-,N/A,,Overcast,30,2012-10-24 08:35:00
4:55 AM,46.4,35.6,66,30.15,10.0,NNE,4.6,-,N/A,,Overcast,30,2012-10-24 08:55:00
5:15 AM,46.4,33.8,62,30.15,10.0,Calm,Calm,-,N/A,,Overcast,0,2012-10-24 09:15:00
5:35 AM,46.4,33.8,62,30.16,10.0,Calm,Calm,-,N/A,,Mostly Cloudy,0,2012-10-24 09:35:00
5:55 AM,44.6,33.8,66,30.17,10.0,North,3.5,-,N/A,,Overcast,10,2012-10-24 09:55:00
6:15 AM,44.6,33.8,66,30.17,10.0,Calm,Calm,-,N/A,,Mostly Cloudy,0,2012-10-24 10:15:00
6:35 AM,44.6,33.8,66,30.17,10.0,Calm,Calm,-,N/A,,Scattered Clouds,0,2012-10-24 10:35:00
6:55 AM,42.8,35.6,76,30.18,10.0,Calm,Calm,-,N/A,,Mostly Cloudy,0,2012-10-24 10:55:00
7:15 AM,44.6,35.6,71,30.18,10.0,Calm,Calm,-,N/A,,Overcast,0,2012-10-24 11:15:00
7:35 AM,44.6,33.8,66,30.19,10.0,Calm,Calm,-,N/A,,Overcast,0,2012-10-24 11:35:00
7:55 AM,44.6,33.8,66,30.19,10.0,Calm,Calm,-,N/A,,Overcast,0,2012-10-24 11:55:00
8:15 AM,44.6,33.8,66,30.20,10.0,Calm,Calm,-,N/A,,Overcast,0,2012-10-24 12:15:00
8:35 AM,44.6,33.8,66,30.19,10.0,Calm,Calm,-,N/A,,Overcast,0,2012-10-24 12:35:00
8:55 AM,46.4,33.8,62,30.19,10.0,Calm,Calm,-,N/A,,Overcast,0,2012-10-24 12:55:00
9:15 AM,46.4,33.8,62,30.20,10.0,Calm,Calm,-,N/A,,Overcast,0,2012-10-24 13:15:00
9:35 AM,46.4,33.8,62,30.19,10.0,Calm,Calm,-,N/A,,Mostly Cloudy,0,2012-10-24 13:35:00
9:55 AM,48.2,33.8,58,30.19,10.0,North,4.6,-,N/A,,Overcast,350,2012-10-24 13:55:00
10:15 AM,48.2,30.2,50,30.19,10.0,North,3.5,-,N/A,,Overcast,10,2012-10-24 14:15:00
10:35 AM,48.2,30.2,50,30.19,10.0,Calm,Calm,-,N/A,,Overcast,0,2012-10-24 14:35:00
10:55 AM,50.0,32.0,50,30.19,10.0,Calm,Calm,-,N/A,,Overcast,0,2012-10-24 14:55:00
11:16 AM,51.8,32.0,47,30.19,10.0,Calm,Calm,-,N/A,,Overcast,0,2012-10-24 15:16:00
11:35 AM,51.8,30.2,44,30.18,10.0,Calm,Calm,-,N/A,,Overcast,0,2012-10-24 15:35:00
11:55 AM,51.8,30.2,44,30.17,10.0,West,3.5,-,N/A,,Overcast,270,2012-10-24 15:55:00
12:15 PM,51.8,32.0,47,30.17,10.0,Calm,Calm,-,N/A,,Overcast,0,2012-10-24 16:15:00
12:35 PM,53.6,30.2,41,30.17,10.0,Calm,Calm,-,N/A,,Overcast,0,2012-10-24 16:35:00
12:55 PM,53.6,30.2,41,30.16,10.0,Calm,Calm,-,N/A,,Overcast,0,2012-10-24 16:55:00
1:15 PM,53.6,30.2,41,30.15,10.0,SSW,3.5,-,N/A,,Overcast,210,2012-10-24 17:15:00
1:35 PM,53.6,33.8,47,30.15,10.0,WSW,5.8,-,N/A,,Overcast,250,2012-10-24 17:35:00
1:55 PM,53.6,32.0,44,30.14,10.0,West,5.8,-,N/A,,Overcast,260,2012-10-24 17:55:00
2:15 PM,53.6,32.0,44,30.14,10.0,WSW,3.5,-,N/A,,Overcast,240,2012-10-24 18:15:00
2:35 PM,53.6,32.0,44,30.13,10.0,Calm,Calm,-,N/A,,Overcast,0,2012-10-24 18:35:00
2:55 PM,53.6,30.2,41,30.13,10.0,SW,3.5,-,N/A,,Overcast,230,2012-10-24 18:55:00
3:15 PM,53.6,30.2,41,30.13,10.0,Calm,Calm,-,N/A,,Overcast,0,2012-10-24 19:15:00
3:35 PM,53.6,30.2,41,30.13,10.0,SW,3.5,-,N/A,,Overcast,230,2012-10-24 19:35:00
3:56 PM,53.6,28.4,38,30.13,10.0,Calm,Calm,-,N/A,,Overcast,0,2012-10-24 19:56:00
4:15 PM,55.4,30.2,38,30.14,10.0,SW,3.5,-,N/A,,Overcast,230,2012-10-24 20:15:00
4:35 PM,53.6,30.2,41,30.14,10.0,WSW,3.5,-,N/A,,Overcast,240,2012-10-24 20:35:00
5:15 PM,53.6,33.8,47,30.15,10.0,WSW,3.5,-,N/A,,Overcast,250,2012-10-24 21:15:00
5:35 PM,53.6,33.8,47,30.15,10.0,SSW,3.5,-,N/A,,Overcast,200,2012-10-24 21:35:00
5:55 PM,53.6,35.6,51,30.16,10.0,South,5.8,-,N/A,,Mostly Cloudy,170,2012-10-24 21:55:00
6:15 PM,51.8,35.6,54,30.15,10.0,Calm,Calm,-,N/A,,Overcast,0,2012-10-24 22:15:00
6:35 PM,51.8,35.6,54,30.16,10.0,South,3.5,-,N/A,,Overcast,180,2012-10-24 22:35:00
6:55 PM,50.0,37.4,62,30.17,10.0,Calm,Calm,-,N/A,,Mostly Cloudy,0,2012-10-24 22:55:00
7:15 PM,48.2,35.6,62,30.17,10.0,Calm,Calm,-,N/A,,Clear,0,2012-10-24 23:15:00
7:35 PM,46.4,35.6,66,30.19,10.0,Calm,Calm,-,N/A,,Clear,0,2012-10-24 23:35:00
7:55 PM,44.6,35.6,71,30.19,10.0,Calm,Calm,-,N/A,,Mostly Cloudy,0,2012-10-24 23:55:00
8:15 PM,44.6,35.6,71,30.19,10.0,SSW,3.5,-,N/A,,Mostly Cloudy,200,2012-10-25 00:15:00
8:55 PM,44.6,37.4,76,30.19,10.0,Calm,Calm,-,N/A,,Scattered Clouds,0,2012-10-25 00:55:00
9:15 PM,42.8,37.4,81,30.20,10.0,Calm,Calm,-,N/A,,Clear,0,2012-10-25 01:15:00
9:35 PM,42.8,37.4,81,30.20,10.0,Calm,Calm,-,N/A,,Clear,0,2012-10-25 01:35:00
9:55 PM,41.0,35.6,81,30.22,10.0,Calm,Calm,-,N/A,,Clear,0,2012-10-25 01:55:00
10:15 PM,41.0,35.6,81,30.21,10.0,Calm,Calm,-,N/A,,Clear,0,2012-10-25 02:15:00
10:35 PM,41.0,35.6,81,30.22,10.0,Calm,Calm,-,N/A,,Mostly Cloudy,0,2012-10-25 02:35:00
10:55 PM,39.2,35.6,87,30.22,10.0,Calm,Calm,-,N/A,,Mostly Cloudy,0,2012-10-25 02:55:00
11:35 PM,39.2,35.6,87,30.21,10.0,South,3.5,-,N/A,,Clear,190,2012-10-25 03:35:00
11:55 PM,39.2,35.6,87,30.22,10.0,Calm,Calm,-,N/A,,Clear,0,2012-10-25 03:55:00